owner,sensor,date,latitude,longitude,vertical_datum,direction_of_sea_water_velocity,sea_water_speed,upward_sea_water_velocity,qcFlag 
TABS,ioos:station:wmo:42043:1,2009-12-01T00:00:00Z,28.9818,-94.9186,2.0,237.0066893,47.41650873,-99999.0,'11111222,11111222,99999999' 
TABS,ioos:station:wmo:42043:1,2009-12-01T00:30:00Z,28.9818,-94.9186,2.0,240.1729958,46.06158595,-99999.0,'11111222,11111222,99999999' 
TABS,ioos:station:wmo:42043:1,2009-12-01T01:00:00Z,28.9818,-94.9186,2.0,235.9257687,42.2302735,-99999.0,'11111222,11111222,99999999' 
TABS,ioos:station:wmo:42043:1,2009-12-01T01:30:00Z,28.9818,-94.9186,2.0,236.771642,40.23926068,-99999.0,'11111222,11111222,99999999' 
TABS,ioos:station:wmo:42043:1,2009-12-01T02:00:00Z,28.9818,-94.9186,2.0,240.684445,33.74087729,-99999.0,'11111222,11111222,99999999' 
TABS,ioos:station:wmo:42043:1,2009-12-01T02:30:00Z,28.9818,-94.9186,2.0,231.5056228,32.38901203,-99999.0,'11111222,11111222,99999999' 
TABS,ioos:station:wmo:42043:1,2009-12-01T03:00:00Z,28.9818,-94.9186,2.0,229.6969303,34.97074921,-99999.0,'11111222,11111222,99999999' 
TABS,ioos:station:wmo:42043:1,2009-12-01T03:30:00Z,28.9818,-94.9186,2.0,234.9767661,30.40579714,-99999.0,'11111222,11111222,99999999' 
TABS,ioos:station:wmo:42043:1,2009-12-01T04:00:00Z,28.9818,-94.9186,2.0,237.2124497,39.07515963,-99999.0,'11111222,11111222,99999999' 
TABS,ioos:station:wmo:42043:1,2009-12-01T04:30:00Z,28.9818,-94.9186,2.0,238.4603187,39.09507514,-99999.0,'11111222,11111222,99999999' 
TABS,ioos:station:wmo:42043:1,2009-12-01T05:00:00Z,28.9818,-94.9186,2.0,236.9375493,35.17565209,-99999.0,'11111222,11111222,99999999' 
TABS,ioos:station:wmo:42043:1,2009-12-01T05:30:00Z,28.9818,-94.9186,2.0,238.3664811,38.0186862,-99999.0,'11111222,11111222,99999999' 
TABS,ioos:station:wmo:42043:1,2009-12-01T06:00:00Z,28.9818,-94.9186,2.0,238.9654271,37.64911287,-99999.0,'11111222,11111222,99999999' 
TABS,ioos:station:wmo:42043:1,2009-12-01T06:30:00Z,28.9818,-94.9186,2.0,238.5937417,41.33581982,-99999.0,'11111222,11111222,99999999' 
TABS,ioos:station:wmo:42043:1,2009-12-01T07:00:00Z,28.9818,-94.9186,2.0,231.4890098,43.79595643,-99999.0,'11111222,11111222,99999999' 
TABS,ioos:station:wmo:42043:1,2009-12-01T07:30:00Z,28.9818,-94.9186,2.0,228.5406493,47.1692209,-99999.0,'11111222,11111222,99999999' 
TABS,ioos:station:wmo:42043:1,2009-12-01T08:00:00Z,28.9818,-94.9186,2.0,228.8125929,46.57414948,-99999.0,'11111222,11111222,99999999' 
TABS,ioos:station:wmo:42043:1,2009-12-01T08:30:00Z,28.9818,-94.9186,2.0,234.1847763,52.13883869,-99999.0,'11111222,11111222,99999999' 
TABS,ioos:station:wmo:42043:1,2009-12-01T09:00:00Z,28.9818,-94.9186,2.0,232.6017415,54.03829475,-99999.0,'11111222,11111222,99999999' 
TABS,ioos:station:wmo:42043:1,2009-12-01T09:30:00Z,28.9818,-94.9186,2.0,228.8058441,54.53923358,-99999.0,'11111222,11111222,99999999' 
TABS,ioos:station:wmo:42043:1,2009-12-01T10:00:00Z,28.9818,-94.9186,2.0,228.9349312,63.15919965,-99999.0,'11111222,11111222,99999999' 
TABS,ioos:station:wmo:42043:1,2009-12-01T10:30:00Z,28.9818,-94.9186,2.0,231.9565399,65.15165846,-99999.0,'11111222,11111222,99999999' 
TABS,ioos:station:wmo:42043:1,2009-12-01T11:00:00Z,28.9818,-94.9186,2.0,229.5328234,63.78966139,-99999.0,'11111222,11111222,99999999' 
TABS,ioos:station:wmo:42043:1,2009-12-01T11:30:00Z,28.9818,-94.9186,2.0,231.7417029,61.01390415,-99999.0,'11111222,11111222,99999999' 
TABS,ioos:station:wmo:42043:1,2009-12-01T12:00:00Z,28.9818,-94.9186,2.0,232.9517403,58.57428275,-99999.0,'11111222,11111222,99999999' 
TABS,ioos:station:wmo:42043:1,2009-12-01T12:30:00Z,28.9818,-94.9186,2.0,231.5593101,65.24050582,-99999.0,'11111222,11111222,99999999' 
TABS,ioos:station:wmo:42043:1,2009-12-01T13:00:00Z,28.9818,-94.9186,2.0,230.5804348,49.37086286,-99999.0,'11111222,11111222,99999999' 
TABS,ioos:station:wmo:42043:1,2009-12-01T13:30:00Z,28.9818,-94.9186,2.0,238.397004,54.13860914,-99999.0,'11111222,11111222,99999999' 
TABS,ioos:station:wmo:42043:1,2009-12-01T14:00:00Z,28.9818,-94.9186,2.0,240.5265502,54.38860267,-99999.0,'11111222,11111222,99999999' 
TABS,ioos:station:wmo:42043:1,2009-12-01T14:30:00Z,28.9818,-94.9186,2.0,237.0372343,46.51813625,-99999.0,'11111222,11111222,99999999' 
TABS,ioos:station:wmo:42043:1,2009-12-01T15:00:00Z,28.9818,-94.9186,2.0,238.0268206,46.64627423,-99999.0,'11111222,11111222,99999999' 
TABS,ioos:station:wmo:42043:1,2009-12-01T15:30:00Z,28.9818,-94.9186,2.0,235.7287327,39.12224176,-99999.0,'11111222,11111222,99999999' 
TABS,ioos:station:wmo:42043:1,2009-12-01T16:00:00Z,28.9818,-94.9186,2.0,235.802322,35.08616251,-99999.0,'11111222,11111222,99999999' 
TABS,ioos:station:wmo:42043:1,2009-12-01T16:30:00Z,28.9818,-94.9186,2.0,239.250015,37.63048232,-99999.0,'11111222,11111222,99999999' 
TABS,ioos:station:wmo:42043:1,2009-12-01T17:00:00Z,28.9818,-94.9186,2.0,248.3652902,45.21515012,-99999.0,'11111222,11111222,99999999' 
TABS,ioos:station:wmo:42043:1,2009-12-01T17:30:00Z,28.9818,-94.9186,2.0,247.4671427,44.38851315,-99999.0,'11111222,11111222,99999999' 
TABS,ioos:station:wmo:42043:1,2009-12-01T18:00:00Z,28.9818,-94.9186,2.0,247.1241351,40.51655711,-99999.0,'11111222,11111222,99999999' 
TABS,ioos:station:wmo:42043:1,2009-12-01T18:30:00Z,28.9818,-94.9186,2.0,247.9783371,44.03240284,-99999.0,'11111222,11111222,99999999' 
TABS,ioos:station:wmo:42043:1,2009-12-01T19:00:00Z,28.9818,-94.9186,2.0,248.6975111,43.68463002,-99999.0,'11111222,11111222,99999999' 
TABS,ioos:station:wmo:42043:1,2009-12-01T19:30:00Z,28.9818,-94.9186,2.0,239.3653962,41.15348102,-99999.0,'11111222,11111222,99999999' 
TABS,ioos:station:wmo:42043:1,2009-12-01T20:00:00Z,28.9818,-94.9186,2.0,235.5942881,41.76663262,-99999.0,'11111222,11111222,99999999' 
TABS,ioos:station:wmo:42043:1,2009-12-01T20:30:00Z,28.9818,-94.9186,2.0,234.6039827,41.74581775,-99999.0,'11111222,11111222,99999999' 
TABS,ioos:station:wmo:42043:1,2009-12-01T21:00:00Z,28.9818,-94.9186,2.0,242.231782,45.80476504,-99999.0,'11111222,11111222,99999999' 
TABS,ioos:station:wmo:42043:1,2009-12-01T21:30:00Z,28.9818,-94.9186,2.0,237.7275726,50.09922255,-99999.0,'11111222,11111222,99999999' 
TABS,ioos:station:wmo:42043:1,2009-12-01T22:00:00Z,28.9818,-94.9186,2.0,236.4484465,54.93212175,-99999.0,'11111222,11111222,99999999' 
TABS,ioos:station:wmo:42043:1,2009-12-01T22:30:00Z,28.9818,-94.9186,2.0,235.3562044,54.67327318,-99999.0,'11111222,11111222,99999999' 
TABS,ioos:station:wmo:42043:1,2009-12-01T23:00:00Z,28.9818,-94.9186,2.0,233.5540292,53.47946615,-99999.0,'11111222,11111222,99999999' 
TABS,ioos:station:wmo:42043:1,2009-12-01T23:30:00Z,28.9818,-94.9186,2.0,229.0744386,58.51250294,-99999.0,'11111222,11111222,99999999' 
TABS,ioos:station:wmo:42043:1,2009-12-02T00:00:00Z,28.9818,-94.9186,2.0,234.9950143,59.4795158,-99999.0,'11111222,11111222,99999999' 
TABS,ioos:station:wmo:42043:1,2009-12-02T00:30:00Z,28.9818,-94.9186,2.0,232.8105472,57.07688586,-99999.0,'11111222,11111222,99999999' 
TABS,ioos:station:wmo:42043:1,2009-12-02T01:00:00Z,28.9818,-94.9186,2.0,233.1967925,64.96804445,-99999.0,'11111222,11111222,99999999' 
TABS,ioos:station:wmo:42043:1,2009-12-02T01:30:00Z,28.9818,-94.9186,2.0,230.151917,60.86618848,-99999.0,'11111222,11111222,99999999' 
TABS,ioos:station:wmo:42043:1,2009-12-02T02:00:00Z,28.9818,-94.9186,2.0,224.1222047,54.02222228,-99999.0,'11111222,11111222,99999999' 
TABS,ioos:station:wmo:42043:1,2009-12-02T02:30:00Z,28.9818,-94.9186,2.0,215.0824188,51.23892466,-99999.0,'11111222,11111222,99999999' 
TABS,ioos:station:wmo:42043:1,2009-12-02T03:00:00Z,28.9818,-94.9186,2.0,222.7068231,71.75807829,-99999.0,'11111222,11111222,99999999' 
TABS,ioos:station:wmo:42043:1,2009-12-02T03:30:00Z,28.9818,-94.9186,2.0,230.669371,73.93615962,-99999.0,'11111222,11111222,99999999' 
TABS,ioos:station:wmo:42043:1,2009-12-02T04:00:00Z,28.9818,-94.9186,2.0,235.0766771,61.87171648,-99999.0,'11111222,11111222,99999999' 
TABS,ioos:station:wmo:42043:1,2009-12-02T04:30:00Z,28.9818,-94.9186,2.0,227.720197,59.88873183,-99999.0,'11111222,11111222,99999999' 
TABS,ioos:station:wmo:42043:1,2009-12-02T05:00:00Z,28.9818,-94.9186,2.0,231.5702273,62.53716495,-99999.0,'11111222,11111222,99999999' 
TABS,ioos:station:wmo:42043:1,2009-12-02T05:30:00Z,28.9818,-94.9186,2.0,229.4601361,59.37173149,-99999.0,'11111222,11111222,99999999' 
TABS,ioos:station:wmo:42043:1,2009-12-02T06:00:00Z,28.9818,-94.9186,2.0,230.2223293,57.1735953,-99999.0,'11111222,11111222,99999999' 
TABS,ioos:station:wmo:42043:1,2009-12-02T06:30:00Z,28.9818,-94.9186,2.0,226.8511721,53.83893387,-99999.0,'11111222,11111222,99999999' 
TABS,ioos:station:wmo:42043:1,2009-12-02T07:00:00Z,28.9818,-94.9186,2.0,228.0994957,62.63524008,-99999.0,'11111222,11111222,99999999' 
TABS,ioos:station:wmo:42043:1,2009-12-02T07:30:00Z,28.9818,-94.9186,2.0,226.6618609,58.74993872,-99999.0,'11111222,11111222,99999999' 
TABS,ioos:station:wmo:42043:1,2009-12-02T08:00:00Z,28.9818,-94.9186,2.0,232.5208893,52.50896495,-99999.0,'11111222,11111222,99999999' 
TABS,ioos:station:wmo:42043:1,2009-12-02T08:30:00Z,28.9818,-94.9186,2.0,227.4705436,54.61821033,-99999.0,'11111222,11111222,99999999' 
TABS,ioos:station:wmo:42043:1,2009-12-02T09:00:00Z,28.9818,-94.9186,2.0,224.9923641,55.34524822,-99999.0,'11111222,11111222,99999999' 
TABS,ioos:station:wmo:42043:1,2009-12-02T09:30:00Z,28.9818,-94.9186,2.0,230.2077494,59.12487209,-99999.0,'11111222,11111222,99999999' 
TABS,ioos:station:wmo:42043:1,2009-12-02T10:00:00Z,28.9818,-94.9186,2.0,227.3780975,58.27337299,-99999.0,'11111222,11111222,99999999' 
TABS,ioos:station:wmo:42043:1,2009-12-02T10:30:00Z,28.9818,-94.9186,2.0,226.0402721,56.84661819,-99999.0,'11111222,11111222,99999999' 
TABS,ioos:station:wmo:42043:1,2009-12-02T11:00:00Z,28.9818,-94.9186,2.0,219.8529228,52.33893388,-99999.0,'11111222,11111222,99999999' 
TABS,ioos:station:wmo:42043:1,2009-12-02T11:30:00Z,28.9818,-94.9186,2.0,214.3833889,52.23717163,-99999.0,'11111222,11111222,99999999' 
TABS,ioos:station:wmo:42043:1,2009-12-02T12:00:00Z,28.9818,-94.9186,2.0,218.683629,51.93402738,-99999.0,'11111222,11111222,99999999' 
TABS,ioos:station:wmo:42043:1,2009-12-02T12:30:00Z,28.9818,-94.9186,2.0,227.6259271,47.37641713,-99999.0,'11111222,11111222,99999999' 
TABS,ioos:station:wmo:42043:1,2009-12-02T13:00:00Z,28.9818,-94.9186,2.0,238.5333342,43.60176258,-99999.0,'11111222,11111222,99999999' 
TABS,ioos:station:wmo:42043:1,2009-12-02T13:30:00Z,28.9818,-94.9186,2.0,228.8768627,35.86876775,-99999.0,'11111222,11111222,99999999' 
TABS,ioos:station:wmo:42043:1,2009-12-02T14:00:00Z,28.9818,-94.9186,2.0,211.9564503,32.45926678,-99999.0,'11111222,11111222,99999999' 
TABS,ioos:station:wmo:42043:1,2009-12-02T14:30:00Z,28.9818,-94.9186,2.0,206.6988309,32.49462879,-99999.0,'11111222,11111222,99999999' 
TABS,ioos:station:wmo:42043:1,2009-12-02T15:00:00Z,28.9818,-94.9186,2.0,197.3124683,26.47966767,-99999.0,'11111222,11111222,99999999' 
TABS,ioos:station:wmo:42043:1,2009-12-02T15:30:00Z,28.9818,-94.9186,2.0,197.6294932,20.70231388,-99999.0,'11111222,11111222,99999999' 
TABS,ioos:station:wmo:42043:1,2009-12-02T16:00:00Z,28.9818,-94.9186,2.0,183.8844976,15.64594836,-99999.0,'11111222,11111222,99999999' 
TABS,ioos:station:wmo:42043:1,2009-12-02T16:30:00Z,28.9818,-94.9186,2.0,133.3561,6.409024887,-99999.0,'11133222,11111222,99999999' 
TABS,ioos:station:wmo:42043:1,2009-12-02T17:00:00Z,28.9818,-94.9186,2.0,105.3012452,11.97447702,-99999.0,'11111222,11111222,99999999' 
TABS,ioos:station:wmo:42043:1,2009-12-02T17:30:00Z,28.9818,-94.9186,2.0,106.0040031,17.44617437,-99999.0,'11111222,11111222,99999999' 
TABS,ioos:station:wmo:42043:1,2009-12-02T18:00:00Z,28.9818,-94.9186,2.0,92.13713678,18.50287005,-99999.0,'11111222,11111222,99999999' 
TABS,ioos:station:wmo:42043:1,2009-12-02T18:30:00Z,28.9818,-94.9186,2.0,84.82215465,25.0421884,-99999.0,'11111222,11111222,99999999' 
TABS,ioos:station:wmo:42043:1,2009-12-02T19:00:00Z,28.9818,-94.9186,2.0,81.86718738,29.68858535,-99999.0,'11111222,11111222,99999999' 
TABS,ioos:station:wmo:42043:1,2009-12-02T19:30:00Z,28.9818,-94.9186,2.0,86.1562039,41.02227931,-99999.0,'11111222,11111222,99999999' 
TABS,ioos:station:wmo:42043:1,2009-12-02T20:00:00Z,28.9818,-94.9186,2.0,78.79736898,41.89832455,-99999.0,'11111222,11111222,99999999' 
TABS,ioos:station:wmo:42043:1,2009-12-02T20:30:00Z,28.9818,-94.9186,2.0,73.99759419,42.76723278,-99999.0,'11111222,11111222,99999999' 
TABS,ioos:station:wmo:42043:1,2009-12-02T21:00:00Z,28.9818,-94.9186,2.0,68.3718256,44.84748599,-99999.0,'11111222,11111222,99999999' 
TABS,ioos:station:wmo:42043:1,2009-12-02T21:30:00Z,28.9818,-94.9186,2.0,74.1135416,44.09413793,-99999.0,'11111222,11111222,99999999' 
TABS,ioos:station:wmo:42043:1,2009-12-02T22:00:00Z,28.9818,-94.9186,2.0,79.83361789,49.23299402,-99999.0,'11111222,11111222,99999999' 
TABS,ioos:station:wmo:42043:1,2009-12-02T22:30:00Z,28.9818,-94.9186,2.0,84.70288796,49.50140402,-99999.0,'11111222,11111222,99999999' 
TABS,ioos:station:wmo:42043:1,2009-12-02T23:00:00Z,28.9818,-94.9186,2.0,82.05014257,49.45529294,-99999.0,'11111222,11111222,99999999' 
TABS,ioos:station:wmo:42043:1,2009-12-02T23:30:00Z,28.9818,-94.9186,2.0,81.11898387,46.83146165,-99999.0,'11111222,11111222,99999999' 
TABS,ioos:station:wmo:42043:1,2009-12-03T00:00:00Z,28.9818,-94.9186,2.0,84.20381863,48.61856641,-99999.0,'11111222,11111222,99999999' 
TABS,ioos:station:wmo:42043:1,2009-12-03T00:30:00Z,28.9818,-94.9186,2.0,82.83206893,48.0051768,-99999.0,'11111222,11111222,99999999' 
TABS,ioos:station:wmo:42043:1,2009-12-03T01:00:00Z,28.9818,-94.9186,2.0,83.04882907,47.01558252,-99999.0,'11111222,11111222,99999999' 
TABS,ioos:station:wmo:42043:1,2009-12-03T01:30:00Z,28.9818,-94.9186,2.0,74.03961302,41.89497345,-99999.0,'11111222,11111222,99999999' 
TABS,ioos:station:wmo:42043:1,2009-12-03T02:00:00Z,28.9818,-94.9186,2.0,75.78465708,46.54523928,-99999.0,'11111222,11111222,99999999' 
TABS,ioos:station:wmo:42043:1,2009-12-03T02:30:00Z,28.9818,-94.9186,2.0,75.9443934,42.98701664,-99999.0,'11111222,11111222,99999999' 
TABS,ioos:station:wmo:42043:1,2009-12-03T03:00:00Z,28.9818,-94.9186,2.0,72.77512748,44.47470405,-99999.0,'11111222,11111222,99999999' 
TABS,ioos:station:wmo:42043:1,2009-12-03T03:30:00Z,28.9818,-94.9186,2.0,72.15834213,46.11796721,-99999.0,'11111222,11111222,99999999' 
TABS,ioos:station:wmo:42043:1,2009-12-03T04:00:00Z,28.9818,-94.9186,2.0,97.9094912,47.01729256,-99999.0,'11111222,11111222,99999999' 
TABS,ioos:station:wmo:42043:1,2009-12-03T04:30:00Z,28.9818,-94.9186,2.0,81.19640022,47.76270616,-99999.0,'11111222,11111222,99999999' 
TABS,ioos:station:wmo:42043:1,2009-12-03T05:00:00Z,28.9818,-94.9186,2.0,83.09403142,49.31781118,-99999.0,'11111222,11111222,99999999' 
TABS,ioos:station:wmo:42043:1,2009-12-03T05:30:00Z,28.9818,-94.9186,2.0,82.2795172,50.8408625,-99999.0,'11111222,11111222,99999999' 
TABS,ioos:station:wmo:42043:1,2009-12-03T06:00:00Z,28.9818,-94.9186,2.0,86.10133399,50.00572067,-99999.0,'11111222,11111222,99999999' 
TABS,ioos:station:wmo:42043:1,2009-12-03T06:30:00Z,28.9818,-94.9186,2.0,89.32906535,47.82327885,-99999.0,'11111222,11111222,99999999' 
TABS,ioos:station:wmo:42043:1,2009-12-03T07:00:00Z,28.9818,-94.9186,2.0,90.90834862,44.15554892,-99999.0,'11111222,11111222,99999999' 
TABS,ioos:station:wmo:42043:1,2009-12-03T07:30:00Z,28.9818,-94.9186,2.0,102.6997465,41.0748804,-99999.0,'11111222,11111222,99999999' 
TABS,ioos:station:wmo:42043:1,2009-12-03T08:00:00Z,28.9818,-94.9186,2.0,102.9765192,38.03123979,-99999.0,'11111222,11111222,99999999' 
TABS,ioos:station:wmo:42043:1,2009-12-03T08:30:00Z,28.9818,-94.9186,2.0,104.8297507,34.49915071,-99999.0,'11111222,11111222,99999999' 
TABS,ioos:station:wmo:42043:1,2009-12-03T09:00:00Z,28.9818,-94.9186,2.0,98.79799189,33.60541177,-99999.0,'11111222,11111222,99999999' 
TABS,ioos:station:wmo:42043:1,2009-12-03T09:30:00Z,28.9818,-94.9186,2.0,104.2497112,30.59123077,-99999.0,'11111222,11111222,99999999' 
TABS,ioos:station:wmo:42043:1,2009-12-03T10:00:00Z,28.9818,-94.9186,2.0,108.2563357,28.41004048,-99999.0,'11111222,11111222,99999999' 
TABS,ioos:station:wmo:42043:1,2009-12-03T10:30:00Z,28.9818,-94.9186,2.0,108.8798279,25.24838609,-99999.0,'11111222,11111222,99999999' 
TABS,ioos:station:wmo:42043:1,2009-12-03T11:00:00Z,28.9818,-94.9186,2.0,127.6909071,25.40060826,-99999.0,'11111222,11111222,99999999' 
TABS,ioos:station:wmo:42043:1,2009-12-03T11:30:00Z,28.9818,-94.9186,2.0,133.2439359,24.22978539,-99999.0,'11111222,11111222,99999999' 
TABS,ioos:station:wmo:42043:1,2009-12-03T12:00:00Z,28.9818,-94.9186,2.0,144.7435133,19.88788576,-99999.0,'11111222,11111222,99999999' 
TABS,ioos:station:wmo:42043:1,2009-12-03T12:30:00Z,28.9818,-94.9186,2.0,142.6768586,18.20856941,-99999.0,'11111222,11111222,99999999' 
TABS,ioos:station:wmo:42043:1,2009-12-03T13:00:00Z,28.9818,-94.9186,2.0,148.0810542,15.43358675,-99999.0,'11111222,11111222,99999999' 
TABS,ioos:station:wmo:42043:1,2009-12-03T13:30:00Z,28.9818,-94.9186,2.0,149.7129845,12.19440035,-99999.0,'11111222,11111222,99999999' 
TABS,ioos:station:wmo:42043:1,2009-12-03T14:00:00Z,28.9818,-94.9186,2.0,172.4630506,12.42736094,-99999.0,'11111222,11111222,99999999' 
TABS,ioos:station:wmo:42043:1,2009-12-03T14:30:00Z,28.9818,-94.9186,2.0,147.4437521,6.727057306,-99999.0,'11133222,11111222,99999999' 
TABS,ioos:station:wmo:42043:1,2009-12-03T15:00:00Z,28.9818,-94.9186,2.0,152.2413139,0.429418211,-99999.0,'11133222,11111222,99999999' 
TABS,ioos:station:wmo:42043:1,2009-12-03T15:30:00Z,28.9818,-94.9186,2.0,23.17108104,2.719356542,-99999.0,'11133222,11111222,99999999' 
TABS,ioos:station:wmo:42043:1,2009-12-03T16:00:00Z,28.9818,-94.9186,2.0,281.5570236,3.643871567,-99999.0,'11133222,11111222,99999999' 
TABS,ioos:station:wmo:42043:1,2009-12-03T16:30:00Z,28.9818,-94.9186,2.0,331.3311612,7.795716773,-99999.0,'11133222,11111222,99999999' 
TABS,ioos:station:wmo:42043:1,2009-12-03T17:00:00Z,28.9818,-94.9186,2.0,336.0475775,11.87244288,-99999.0,'11111222,11111222,99999999' 
TABS,ioos:station:wmo:42043:1,2009-12-03T17:30:00Z,28.9818,-94.9186,2.0,349.347948,17.25739552,-99999.0,'11111222,11111222,99999999' 
TABS,ioos:station:wmo:42043:1,2009-12-03T18:00:00Z,28.9818,-94.9186,2.0,345.6613724,19.74510066,-99999.0,'11111222,11111222,99999999' 
TABS,ioos:station:wmo:42043:1,2009-12-03T18:30:00Z,28.9818,-94.9186,2.0,359.5231762,22.82079096,-99999.0,'11111222,11144222,99999999' 
TABS,ioos:station:wmo:42043:1,2009-12-03T19:00:00Z,28.9818,-94.9186,2.0,2.345479094,17.59473785,-99999.0,'11111222,11111222,99999999' 
TABS,ioos:station:wmo:42043:1,2009-12-03T19:30:00Z,28.9818,-94.9186,2.0,359.2967522,21.99165751,-99999.0,'11111222,11144222,99999999' 
TABS,ioos:station:wmo:42043:1,2009-12-03T20:00:00Z,28.9818,-94.9186,2.0,359.5890048,20.90053827,-99999.0,'11111222,11144222,99999999' 
TABS,ioos:station:wmo:42043:1,2009-12-03T20:30:00Z,28.9818,-94.9186,2.0,4.655442141,21.0695064,-99999.0,'11111222,11111222,99999999' 
TABS,ioos:station:wmo:42043:1,2009-12-03T21:00:00Z,28.9818,-94.9186,2.0,4.243403294,18.65112329,-99999.0,'11111222,11111222,99999999' 
TABS,ioos:station:wmo:42043:1,2009-12-03T21:30:00Z,28.9818,-94.9186,2.0,11.53832968,16.24835069,-99999.0,'11111222,11111222,99999999' 
TABS,ioos:station:wmo:42043:1,2009-12-03T22:00:00Z,28.9818,-94.9186,2.0,7.852161784,14.56657132,-99999.0,'11111222,11111222,99999999' 
TABS,ioos:station:wmo:42043:1,2009-12-03T22:30:00Z,28.9818,-94.9186,2.0,17.97780602,13.86702924,-99999.0,'11111222,11111222,99999999' 
TABS,ioos:station:wmo:42043:1,2009-12-03T23:00:00Z,28.9818,-94.9186,2.0,21.39997055,11.127138,-99999.0,'11111222,11111222,99999999' 
TABS,ioos:station:wmo:42043:1,2009-12-03T23:30:00Z,28.9818,-94.9186,2.0,22.32664223,8.713191149,-99999.0,'11133222,11111222,99999999' 
TABS,ioos:station:wmo:42043:1,2009-12-04T00:00:00Z,28.9818,-94.9186,2.0,63.57365712,7.392462377,-99999.0,'11133222,11111222,99999999' 
TABS,ioos:station:wmo:42043:1,2009-12-04T00:30:00Z,28.9818,-94.9186,2.0,94.85110475,5.43948527,-99999.0,'11133222,11111222,99999999' 
TABS,ioos:station:wmo:42043:1,2009-12-04T01:00:00Z,28.9818,-94.9186,2.0,111.1906243,6.445851379,-99999.0,'11133222,11111222,99999999' 
TABS,ioos:station:wmo:42043:1,2009-12-04T01:30:00Z,28.9818,-94.9186,2.0,134.3888897,8.620121809,-99999.0,'11133222,11111222,99999999' 
TABS,ioos:station:wmo:42043:1,2009-12-04T02:00:00Z,28.9818,-94.9186,2.0,126.9421544,7.920006313,-99999.0,'11133222,11111222,99999999' 
TABS,ioos:station:wmo:42043:1,2009-12-04T02:30:00Z,28.9818,-94.9186,2.0,137.7105769,9.868110255,-99999.0,'11133222,11111222,99999999' 
TABS,ioos:station:wmo:42043:1,2009-12-04T03:00:00Z,28.9818,-94.9186,2.0,134.234723,8.471894711,-99999.0,'11133222,11111222,99999999' 
TABS,ioos:station:wmo:42043:1,2009-12-04T03:30:00Z,28.9818,-94.9186,2.0,133.1458275,8.086463999,-99999.0,'11133222,11111222,99999999' 
TABS,ioos:station:wmo:42043:1,2009-12-04T04:00:00Z,28.9818,-94.9186,2.0,137.6914932,8.88399122,-99999.0,'11133222,11111222,99999999' 
TABS,ioos:station:wmo:42043:1,2009-12-04T04:30:00Z,28.9818,-94.9186,2.0,136.9666921,10.30154357,-99999.0,'11111222,11111222,99999999' 
TABS,ioos:station:wmo:42043:1,2009-12-04T05:00:00Z,28.9818,-94.9186,2.0,156.6057058,11.15717258,-99999.0,'11111222,11111222,99999999' 
TABS,ioos:station:wmo:42043:1,2009-12-04T05:30:00Z,28.9818,-94.9186,2.0,159.3372026,9.437044029,-99999.0,'11133222,11111222,99999999' 
TABS,ioos:station:wmo:42043:1,2009-12-04T06:00:00Z,28.9818,-94.9186,2.0,161.2566616,10.58113415,-99999.0,'11111222,11111222,99999999' 
TABS,ioos:station:wmo:42043:1,2009-12-04T06:30:00Z,28.9818,-94.9186,2.0,171.7707012,11.45797539,-99999.0,'11111222,11111222,99999999' 
TABS,ioos:station:wmo:42043:1,2009-12-04T07:00:00Z,28.9818,-94.9186,2.0,188.5233878,15.8551222,-99999.0,'11111222,11111222,99999999' 
TABS,ioos:station:wmo:42043:1,2009-12-04T07:30:00Z,28.9818,-94.9186,2.0,197.0246569,17.86279094,-99999.0,'11111222,11111222,99999999' 
TABS,ioos:station:wmo:42043:1,2009-12-04T08:00:00Z,28.9818,-94.9186,2.0,205.4960964,20.14153172,-99999.0,'11111222,11111222,99999999' 
TABS,ioos:station:wmo:42043:1,2009-12-04T08:30:00Z,28.9818,-94.9186,2.0,213.1599206,25.19278667,-99999.0,'11111222,11111222,99999999' 
TABS,ioos:station:wmo:42043:1,2009-12-04T09:00:00Z,28.9818,-94.9186,2.0,217.4517156,26.96939191,-99999.0,'11111222,11111222,99999999' 
TABS,ioos:station:wmo:42043:1,2009-12-04T09:30:00Z,28.9818,-94.9186,2.0,223.48054,30.93972527,-99999.0,'11111222,11111222,99999999' 
TABS,ioos:station:wmo:42043:1,2009-12-04T10:00:00Z,28.9818,-94.9186,2.0,228.3596506,36.67703641,-99999.0,'11111222,11111222,99999999' 
TABS,ioos:station:wmo:42043:1,2009-12-04T10:30:00Z,28.9818,-94.9186,2.0,223.4646254,35.10630855,-99999.0,'11111222,11111222,99999999' 
TABS,ioos:station:wmo:42043:1,2009-12-04T11:00:00Z,28.9818,-94.9186,2.0,227.4122123,42.49943176,-99999.0,'11111222,11111222,99999999' 
TABS,ioos:station:wmo:42043:1,2009-12-04T11:30:00Z,28.9818,-94.9186,2.0,229.0060349,49.89517512,-99999.0,'11111222,11111222,99999999' 
TABS,ioos:station:wmo:42043:1,2009-12-04T12:00:00Z,28.9818,-94.9186,2.0,235.2007982,59.05057239,-99999.0,'11111222,11111222,99999999' 
TABS,ioos:station:wmo:42043:1,2009-12-04T12:30:00Z,28.9818,-94.9186,2.0,236.1075768,58.21060041,-99999.0,'11111222,11111222,99999999' 
TABS,ioos:station:wmo:42043:1,2009-12-04T13:00:00Z,28.9818,-94.9186,2.0,236.3422297,58.42380765,-99999.0,'11111222,11111222,99999999' 
TABS,ioos:station:wmo:42043:1,2009-12-04T13:30:00Z,28.9818,-94.9186,2.0,238.5116897,61.85869866,-99999.0,'11111222,11111222,99999999' 
TABS,ioos:station:wmo:42043:1,2009-12-04T14:00:00Z,28.9818,-94.9186,2.0,238.8387514,64.29691517,-99999.0,'11111222,11111222,99999999' 
TABS,ioos:station:wmo:42043:1,2009-12-04T14:30:00Z,28.9818,-94.9186,2.0,237.9925255,69.60052083,-99999.0,'11111222,11111222,99999999' 
TABS,ioos:station:wmo:42043:1,2009-12-04T15:00:00Z,28.9818,-94.9186,2.0,238.0859248,66.92623178,-99999.0,'11111222,11111222,99999999' 
TABS,ioos:station:wmo:42043:1,2009-12-04T15:30:00Z,28.9818,-94.9186,2.0,239.3293052,68.65349882,-99999.0,'11111222,11111222,99999999' 
TABS,ioos:station:wmo:42043:1,2009-12-04T16:00:00Z,28.9818,-94.9186,2.0,242.4020179,69.9824035,-99999.0,'11111222,11111222,99999999' 